This demonstration page uses our WeatherBlox Daily Observations layout. Learn more.

Left ArrowRight Arrow

39.01783, -85.05884

Hourly Observations for February 18, 2020

Temp ( °F °C ) Dew Point ( °F °C ) Humidity (%) Winds ( mph kmh ) Pressure ( in mb ) Visibility ( mi km ) Precip ( " mm )
12:52 am 00:52 Cloudy 54 12.2 42 5.6 64 64 SW 17 28 29.88 1012 10 16.0934 0 0
1:52 am 01:52 Cloudy 55 12.8 45 7.2 69 69 SW 14 22 29.9 1012 10 16.0934 0 0
2:49 am 02:49 Cloudy 54 12 46 8 77 77 SW 13 20 29.91 1013 10 16.0934 0 0
2:52 am 02:52 Cloudy 54 12.2 46 7.8 75 75 SW 12 19 29.9 1013 10 16.0934 0 0
3:52 am 03:52 Cloudy with Light Rain 53 11.7 47 8.3 80 80 SW 9 15 29.9 1013 10 16.0934 0.001 0.001
4:52 am 04:52 Cloudy 53 11.7 48 8.9 83 83 SW 10 17 29.92 1013 10 16.0934 0.001 0.001
5:35 am 05:35 Cloudy 53 11.7 48 8.9 83 83 SW 12 19 29.93 1014 10 16.0934 0 0
5:52 am 05:52 Cloudy 53 11.7 48 8.9 83 83 SW 13 20 29.93 1014 10 16.0934 0 0
6:52 am 06:52 Cloudy with Light Rain 53 11.7 49 9.4 86 86 SW 13 20 29.95 1014 7 11.26538 0.001 0.001
6:59 am 06:59 Cloudy with Light Rain 52 11.1 49 9.4 89 89 WSW 9 15 29.96 1014 6 9.65604 0.001 0.001
7:19 am 07:19 Cloudy with Light Rain 52 11.1 50 10 93 93 SW 8 13 29.97 1015 2 3.21868 0.01 0.254
7:52 am 07:52 Cloudy with Rain 52 11.1 50 10 93 93 WSW 6 9 29.96 1015 2 3.21868 0.04 1.016
8:52 am 08:52 Cloudy with Light Rain 52 11.1 50 10 93 93 W 7 11 29.98 1015 3 4.82802 0.04 1.016
9:08 am 09:08 Cloudy with Light Rain 52 11.1 49 9.4 89 89 W 8 13 30.01 1016 3 4.82802 0.01 0.254
9:16 am 09:16 Cloudy with Light Rain 52 11.1 49 9.4 89 89 WSW 5 7 30.01 1016 3 4.82802 0.02 0.508
9:52 am 09:52 Cloudy with Light Rain 52 11.1 50 10 93 93 W 8 13 30 1016 3 4.82802 0.04 1.016
10:15 am 10:15 Cloudy with Light Rain 52 11.1 49 9.4 89 89 WNW 9 15 30.02 1016 3 4.82802 0.001 0.001
10:27 am 10:27 Cloudy with Light Rain 52 11.1 48 8.9 86 86 WNW 12 19 30.02 1016 3 4.82802 0.001 0.001
10:47 am 10:47 Cloudy with Light Rain 52 11 48 9 88 88 WNW 14 22 30.04 1017 3 4.82802 0.01 0.254
10:52 am 10:52 Cloudy with Light Rain 51 10.6 48 8.9 89 89 NW 13 20 30.03 1017 3 4.82802 0.01 0.254
10:55 am 10:55 Cloudy with Light Rain 51 10.6 48 8.9 89 89 NW 10 17 30.04 1017 3 4.82802 0.001 0.001
11:03 am 11:03 Cloudy with Light Rain 50 10 47 8.3 89 89 NW 16 26 30.05 1018 3 4.82802 0.001 0.001
11:52 am 11:52 Cloudy with Mist and Fog 48 8.9 44 6.7 86 86 NW 20 31 30.06 1018 6 9.65604 0.01 0.254
12:20 pm 12:20 Cloudy 47 8.3 42 5.6 83 83 NW 15 24 30.09 1019 7 11.26538 0 0
12:52 pm 12:52 Cloudy 47 8.3 40 4.4 77 77 NW 13 20 30.06 1018 10 16.0934 0 0
1:52 pm 13:52 Cloudy 46 7.8 39 3.9 77 77 NW 12 19 30.06 1018 10 16.0934 0 0
2:52 pm 14:52 Cloudy 46 7.8 37 2.8 71 71 NNW 14 22 30.07 1018 10 16.0934 0 0
3:52 pm 15:52 Cloudy 45 7.2 35 1.7 68 68 N 13 20 30.1 1019 10 16.0934 0 0
4:52 pm 16:52 Cloudy 43 6.1 33 0.6 68 68 NNW 13 20 30.13 1020 10 16.0934 0 0
5:52 pm 17:52 Cloudy 41 5 31 -0.6 67 67 NNW 15 24 30.17 1022 9 14.48406 0 0
6:52 pm 18:52 Cloudy 40 4.4 31 -0.6 70 70 NNW 9 15 30.23 1024 9 14.48406 0 0
7:52 pm 19:52 Cloudy 39 3.9 31 -0.6 73 73 NNW 8 13 30.25 1024 9 14.48406 0 0
8:52 pm 20:52 Cloudy 39 3.9 30 -1.1 70 70 NNW 9 15 30.26 1025 9 14.48406 0 0
9:52 pm 21:52 Mostly Clear 36 2.2 29 -1.7 76 76 NNW 10 17 30.27 1025 8 12.87472 0 0
10:52 pm 22:52 Mostly Clear 35 1.7 29 -1.7 78 78 NNW 13 20 30.3 1026 8 12.87472 0 0
11:52 pm 23:52 Clear 33 0.6 27 -2.8 78 78 NNW 10 17 30.33 1027 7 11.26538 0 0

Powered by AerisWeather